sat.trackr.live / text

‹ back to catalog

BULGARIASAT-1

NORAD 42801 · 2017-038A

PAYLOAD ACTIVE UNKNOWN

§ Identity

Operator
Country
BUL
Launch date
2017-06-23
Launch site
AFETR
Launch vehicle
Mass (kg)
RCS (m²)

Purposes: comms

External: N2YO · Heavens-Above · Gunter

§ Orbital elements

Epoch: 2026-09-19T01:35:03.784128Z

Period
1,436.08 min
Inclination
0.0122°
Eccentricity
0.0003041
Mean motion
1.00272635 rev/d
Perigee alt
35,773.5 km
Apogee alt
35,799.2 km
Semi-major
42,164.5 km
B*
0.0000e+0
RAAN
153.7989°
Arg perigee
43.2068°
Mean anomaly
186.6478°
Rev number
3,378

§ Raw data

BULGARIASAT-11 42801U 17038A   26262.06601602  .00000007  00000+0  00000+0 0  99982 42801   0.0122 153.7989 0003041  43.2068 186.6478  1.00272635 33782

JSON: /api/v1/satellites/42801 · /tle

For live sub-satellite position, see the globe view (requires WebGL).

§ Visibility from observer

Set your observer location to see the next 7 days of passes ≥ 10°. The values pass through the URL so the page stays shareable.

No JS? Fill the form by hand. The geolocation button needs JavaScript.